Regional Weather Roundup
Issued by NWS

Home | Current Version | Previous Version | Graphics & Text | Print | Product List | Glossary On
Versions: 1 2 3 4 5 6 7 8 9 10 11 12 13 14 15 16 17 18 19 20 21 22 23 24 25 26 27 28 29 30 31 32 33 34 35 36 37 38 39 40 41 42 43 44 45 46 47 48 49 50
000
ASUS43 KMPX 190410
RWRMN
WEATHER ROUNDUP FOR MINNESOTA
NATIONAL WEATHER SERVICE TWIN CITIES/CHANHASSEN MN
1000 PM CST SAT FEB 18 2017


NOTE: "FAIR" INDICATES FEW OR NO CLOUDS BELOW 12,000 FEET WITH NO
SIGNIFICANT WEATHER AND/OR OBSTRUCTIONS TO VISIBILITY. N/A MEANS
CURRENT SKY AND/OR WEATHER CONDITIONS ARE NOT AVAILABLE.

MNZ060>063-068>070-190500-
   Twin Cities Metro

CITY           SKY/WX    TMP DP  RH WIND       PRES   REMARKS
TWIN CITIES    MOCLDY    48  37  65 S5        29.85S
ST PAUL        PTCLDY    39  35  86 CALM      29.86R
CRYSTAL        MOCLDY    43  33  68 CALM      29.83S
BLAINE         CLOUDY    45  36  70 CALM      29.84S
LAKEVILLE      CLOUDY    36  34  93 CALM      29.86R
EDEN PRAIRIE   CLOUDY    46  37  71 S5        29.84R
SOUTH ST PAUL  PTCLDY    40  33  76 CALM      29.85R
LAKE ELMO      FAIR      37  32  81 CALM      29.85S
$$
MNZ001>005-007-008-013>017-022>024-027-028-190500-
   Northwest Minnesota

CITY           SKY/WX    TMP DP  RH WIND       PRES   REMARKS
BEMIDJI        PTCLDY    34  32  92 NW5       29.82R WCI  30
HALLOCK        CLOUDY    32  30  93 CALM      29.81S
ROSEAU         CLOUDY    32  27  80 CALM      29.81S
WARROAD        PTCLDY    32  28  86 W3        29.81R
THIEF RVR FALL CLOUDY    35  32  88 CALM      29.83S
CROOKSTON      CLOUDY    36  34  93 CALM      29.83S
FOSSTON        CLOUDY    34  32  93 CALM      29.82S
DETROIT LAKES  CLOUDY    36  34  93 CALM      29.82R
MOORHEAD       CLOUDY    36  34  93 NE5       29.81R
PARK RAPIDS    PTCLDY    38  30  73 N3        29.79R
MAHNOMEN       FAIR      34  33  95 E3        29.81S
$$
MNZ006-009>011-018-025>026-190500-
   North Central Minnesota

CITY           SKY/WX    TMP DP  RH WIND       PRES   REMARKS
BAUDETTE       PTCLDY    32  28  85 W5        29.80R WCI  27
FLAG ISLAND    PTCLDY    32  27  80 CALM      29.80R
INTL FALLS     PTCLDY    34  29  82 W6        29.79R WCI  29
WASKISH        PTCLDY    34  30  86 W5        29.81S WCI  30
BIG FORK       MOCLDY    37  30  75 CALM      29.81R
LONGVILLE      CLOUDY    36  30  80 CALM      29.81R
GRAND RAPIDS   CLEAR     38  31  76 CALM      29.83R
CRANE LAKE     PTCLDY    36  30  80 CALM      29.80R
ORR            PTCLDY    36  28  75 CALM      29.78R
COOK           CLOUDY    37  30  75 W6        29.80R
WALKER         FAIR      38  31  75 N3        29.81R
$$
MNZ012-019>021-037-190500-
   Northeast Minnesota

CITY           SKY/WX    TMP DP  RH WIND       PRES   REMARKS
DULUTH         PTCLDY    42  31  64 NW9       29.78S
ELY            PTCLDY    37  30  75 W7        29.78R
HIBBING        PTCLDY    37  31  78 W5        29.80R
EVELETH        PTCLDY    37  30  75 CALM      29.80R
DULUTH HARBOR  MOCLDY    45  32  61 CALM      29.81R
TWO HARBORS    MOCLDY    46  36  66 W7        29.76R
SILVER BAY     CLOUDY    45  32  61 W3        29.74
GRAND MARAIS     N/A     42  34  73 SW10      29.72R
G MARAIS ARPRT CLEAR     37  27  65 W12G21    29.71R
$$
MNZ029>031-032-039>041-046>048-054>057-064-190500-
   West Central Minnesota

CITY           SKY/WX    TMP DP  RH WIND       PRES   REMARKS
FERGUS FALLS   PTCLDY    43  37  81 SE3       29.84R
WHEATON        CLEAR     34  32  93 E6        29.81R WCI  29
MORRIS         CLEAR     36  36 100 SE7       29.79S
ALEXANDRIA     CLEAR     38  35  89 CALM      29.81R
ELBOW LAKE     FAIR      36  35  94 SE6       29.81R
WADENA         PTCLDY    36  34  93 CALM      29.81R
GLENWOOD       CLEAR     37  37 100 SE3       29.81S
APPLETON       CLEAR     43  37  81 SE7       29.79S
BENSON         CLEAR     45  36  70 S8        29.81F
ORTONVILLE     CLEAR     39  36  87 CALM      29.79R
WILLMAR        FAIR      37  36  93 CALM      29.82F
$$
MNZ033>034-036-042>043-049>051-058-059-190500-
   Central Minnesota

CITY           SKY/WX    TMP DP  RH WIND       PRES   REMARKS
ST CLOUD       CLOUDY    38  36  92 SE3       29.81F
SAUK CENTRE    FAIR      39  38  94 S3        29.82R
PAYNESVILLE    CLOUDY    37  37 100 S6        29.81F
AITKIN         CLOUDY    45  32  61 CALM      29.80R
PINE RIVER     CLOUDY    37  34  87 CALM      29.85R
BRAINERD       CLOUDY    40  35  83 S3        29.81S
STAPLES        PTCLDY    36  34  93 CALM      29.82R
LONG PRAIRIE   FAIR      36  34  93 S5        29.81S
LITTLE FALLS   PTCLDY    37  34  87 CALM      29.82S
LITCHFIELD     CLOUDY    37  36  93 CALM      29.83F
BUFFALO        CLOUDY    40  36  87 CALM      29.84S
MAPLE LAKE     CLOUDY    40  38  91 CALM      29.84S
HUTCHINSON     CLOUDY    37  37  99 CALM      29.84F
$$
MNZ037-044-045-052-053-190500-
   East Central Minnesota

CITY           SKY/WX    TMP DP  RH WIND       PRES   REMARKS
PRINCETON      CLOUDY    41  37  87 CALM      29.83S
MORA           CLOUDY    36  32  87 CALM      29.84S
CAMBRIDGE      CLOUDY    45  34  65 CALM      29.82R
RUSH CITY      CLOUDY    41  36  81 CALM      29.83S
MOOSE LAKE     CLOUDY    39  30  70 CALM      29.79S
HINCKLEY       FAIR      41  36  81 SW3       29.82R
CLOQUET        PTCLDY    43  28  56 W5        29.80R
MCGREGOR       MOCLDY    43  34  70 CALM      29.80S
$$
MNZ071>073-080-081-089-090-097-098-190500-
   Southwest Minnesota

CITY           SKY/WX    TMP DP  RH WIND       PRES   REMARKS
MONTEVIDEO     CLEAR     39  39 100 S7        29.82S
GRANITE FALLS  CLEAR     43  39  85 SE9       29.82F
CANBY          CLEAR     39  37  92 CALM      29.80S
MARSHALL       CLEAR     39  36  89 S8        29.82S
REDWOOD FALLS  CLEAR     39  35  86 SE6       29.82F
OLIVIA         CLEAR     37  36  93 SE7       29.82F
PIPESTONE      CLEAR     39  34  81 SE8       29.81R
WINDOM         CLEAR     37  36  93 SE3       29.84S
WORTHINGTON    CLEAR     43  39  86 SE7       29.83F
JACKSON        CLOUDY    41  36  81 SE5       29.85S
TRACY          CLEAR     46  39  76 S8        29.82S
SLAYTON        CLEAR     36  35  97 SE3       29.83R
$$
MNZ065>067-074>077-082>085-091>093-190500-
   South Central Minnesota

CITY           SKY/WX    TMP DP  RH WIND       PRES   REMARKS
MANKATO          N/A     43  36  76 SE5       29.86
NEW ULM        CLEAR     43  36  75 CALM      29.85S
ST JAMES       CLEAR     37  36  93 CALM      29.85F
FAIRMONT       CLOUDY    37  35  92 SE3       29.85F
GLENCOE        CLOUDY    38  38  99 CALM      29.83F
FARIBAULT      CLOUDY    36  32  87 CALM      29.87S
OWATONNA       CLEAR     37  34  87 SE5       29.86F
WASECA         CLEAR     34  32  93 CALM      29.87F
ALBERT LEA     CLOUDY    37  37 100 CALM      29.86S
$$
MNZ078>079-086>088-094>096-190500-
   Southeast Minnesota

CITY           SKY/WX    TMP DP  RH WIND       PRES   REMARKS
ROCHESTER      CLOUDY    38  36  92 SW5       29.87R
RED WING       CLOUDY    34  30  86 CALM      29.86R
STANTON        CLOUDY    35  32  88 CALM      29.85S
DODGE CENTER   CLEAR     37  36  93 SW5       29.87R
WINONA         PTCLDY    34  32  93 CALM      29.88R
AUSTIN         CLEAR     36  34  93 CALM      29.88R FOG
PRESTON        CLOUDY    41  37  86 NW5       29.88R
$$
ABBREVIATIONS USED IN REMARKS
   TC - TEMPERATURES IN CELSIUS
  WCI - WIND CHILL INDEX
   HX - HEAT INDEX
  VSB - VISIBILITY
$$




USA.gov is the U.S. government's official web portal to all federal, state and local government web resources and services.